QPF
0.01 0.01 0.00 0.00 0.00 0.00 0.00 0.00 0.00 0.00 0.00 0.00 0.00 0.00 0.00 0.00 0.00 0.00 0.00 0.00 0.00 0.00 0.00 0.00 0.00 0.00 0.00 0.00 0.00 0.00 0.00 0.01 0.01 0.03 0.04 0.00 0.00 0.00 0.00 0.00 0.00 0.00 0.00
0.01 0.01 0.00 0.00 0.00 0.00 0.00 0.00 0.00 0.00 0.00 0.00 0.00 0.00 0.00 0.00 0.00 0.00 0.00 0.00 0.00 0.00 0.00 0.00 0.00 0.00 0.00 0.00 0.00 0.00 0.00 0.01 0.00 0.00 0.00 0.00 0.00 0.00 0.00 0.00 0.00 0.00 0.00
0.01 0.02 0.00 0.00 0.00 0.00 0.00 0.00 0.00 0.00 0.00 0.00 0.00 0.00 0.00 0.00 0.00 0.00 0.00 0.00 0.00 0.00 0.00 0.00 0.00 0.00 0.00 0.00 0.00 0.00 0.00 0.01 0.01 0.00 0.00 0.00 0.00 0.00 0.00 0.00 0.00 0.00 0.00
0.01 0.01 0.01 0.00 0.00 0.00 0.00 0.00 0.00 0.00 0.00 0.00 0.00 0.00 0.00 0.00 0.00 0.00 0.00 0.00 0.00 0.00 0.00 0.00 0.00 0.00 0.00 0.00 0.00 0.00 0.00 0.00 0.00 0.00 0.00 0.00 0.00 0.00 0.00 0.00 0.00 0.00 0.00
0.01 0.00 0.03 0.02 0.00 0.00 0.00 0.00 0.00 0.00 0.00 0.00 0.00 0.00 0.00 0.00 0.00 0.00 0.00 0.00 0.00 0.00 0.00 0.00 0.00 0.00 0.00 0.00 0.00 0.00 0.00 0.00 0.00 0.00 0.00 0.00 0.00 0.00 0.00 0.00 0.00 0.00 0.00
0.03 0.02 0.09 0.08 0.01 0.00 0.00 0.00 0.00 0.00 0.00 0.00 0.00 0.00 0.00 0.00 0.00 0.00 0.00 0.00 0.00 0.00 0.00 0.00 0.00 0.00 0.00 0.00 0.00 0.00 0.00 0.00 0.00 0.00 0.00 0.00 0.00 0.00 0.00 0.00 0.00 0.00 0.00
0.07 0.13 0.21 0.24 0.13 0.00 0.00 0.00 0.00 0.00 0.00 0.00 0.00 0.00 0.00 0.00 0.00 0.00 0.00 0.00 0.00 0.00 0.00 0.00 0.00 0.00 0.00 0.00 0.00 0.00 0.00 0.00 0.00 0.00 0.00 0.00 0.00 0.00 0.00 0.00 0.00 0.00 0.00
0.23 0.20 0.28 0.37 0.21 0.02 0.00 0.00 0.00 0.00 0.00 0.00 0.00 0.00 0.00 0.00 0.00 0.00 0.00 0.00 0.00 0.00 0.00 0.00 0.00 0.00 0.00 0.00 0.00 0.00 0.00 0.00 0.00 0.00 0.00 0.00 0.00 0.00 0.00 0.00 0.00 0.00 0.00
0.60 0.53 0.69 0.43 0.16 0.01 0.00 0.00 0.00 0.00 0.00 0.00 0.00 0.00 0.00 0.00 0.00 0.00 0.00 0.00 0.00 0.00 0.00 0.00 0.00 0.00 0.00 0.00 0.00 0.00 0.00 0.00 0.00 0.00 0.00 0.00 0.00 0.00 0.00 0.00 0.00 0.00 0.00
0.78 0.91 0.82 0.30 0.06 0.01 0.00 0.00 0.00 0.00 0.00 0.00 0.00 0.00 0.00 0.00 0.00 0.00 0.00 0.00 0.00 0.00 0.00 0.00 0.00 0.00 0.00 0.00 0.00 0.00 0.00 0.00 0.00 0.00 0.00 0.00 0.00 0.00 0.00 0.00 0.00 0.00 0.00
0.58 0.41 0.25 0.08 0.02 0.00 0.00 0.00 0.00 0.00 0.00 0.00 0.00 0.00 0.00 0.00 0.00 0.00 0.00 0.00 0.00 0.00 0.00 0.00 0.00 0.00 0.00 0.00 0.00 0.00 0.00 0.00 0.00 0.00 0.00 0.00 0.00 0.00 0.00 0.00 0.00 0.00 0.00
0.24 0.26 0.16 0.06 0.01 0.00 0.00 0.00 0.00 0.00 0.00 0.00 0.00 0.00 0.00 0.00 0.00 0.00 0.00 0.00 0.00 0.00 0.00 0.00 0.00 0.00 0.00 0.00 0.00 0.00 0.00 0.00 0.00 0.00 0.00 0.00 0.00 0.00 0.00 0.00 0.00 0.00 0.00
0.09 0.21 0.14 0.02 0.00 0.00 0.00 0.00 0.00 0.00 0.00 0.00 0.00 0.00 0.00 0.00 0.00 0.00 0.00 0.00 0.00 0.00 0.00 0.00 0.00 0.00 0.00 0.00 0.00 0.00 0.00 0.00 0.00 0.00 0.00 0.00 0.00 0.00 0.00 0.00 0.00 0.00 0.00
0.03 0.07 0.05 0.00 0.00 0.00 0.00 0.00 0.00 0.00 0.00 0.00 0.00 0.00 0.00 0.00 0.00 0.00 0.00 0.00 0.00 0.00 0.00 0.00 0.00 0.00 0.00 0.00 0.00 0.00 0.00 0.00 0.00 0.00 0.00 0.00 0.00 0.00 0.00 0.00 0.00 0.00 0.00
0.00 0.01 0.03 0.00 0.00 0.00 0.00 0.00 0.00 0.00 0.00 0.00 0.00 0.00 0.00 0.00 0.00 0.00 0.00 0.00 0.00 0.00 0.00 0.00 0.00 0.00 0.00 0.00 0.00 0.00 0.00 0.00 0.00 0.00 0.00 0.00 0.00 0.00 0.00 0.00 0.00 0.00 0.00
0.00 0.00 0.00 0.00 0.00 0.00 0.00 0.00 0.00 0.00 0.00 0.00 0.00 0.00 0.00 0.00 0.00 0.00 0.00 0.00 0.00 0.00 0.00 0.00 0.00 0.00 0.00 0.00 0.00 0.00 0.00 0.00 0.00 0.00 0.00 0.00 0.00 0.00 0.00 0.00 0.00 0.00 0.00
0.00 0.00 0.00 0.00 0.00 0.00 0.00 0.00 0.00 0.00 0.00 0.00 0.00 0.00 0.00 0.00 0.00 0.00 0.00 0.00 0.00 0.00 0.00 0.00 0.00 0.00 0.00 0.00 0.00 0.00 0.00 0.00 0.00 0.00 0.00 0.00 0.00 0.00 0.00 0.00 0.00 0.00 0.00
0.00 0.00 0.00 0.00 0.00 0.00 0.00 0.00 0.00 0.01 0.01 0.01 0.00 0.00 0.00 0.00 0.00 0.00 0.00 0.00 0.00 0.00 0.00 0.00 0.00 0.00 0.00 0.00 0.00 0.00 0.00 0.00 0.00 0.00 0.00 0.00 0.00 0.00 0.00 0.00 0.00 0.00 0.00
0.00 0.00 0.00 0.00 0.00 0.00 0.00 0.00 0.00 0.00 0.00 0.01 0.00 0.00 0.00 0.00 0.00 0.00 0.00 0.00 0.00 0.00 0.00 0.00 0.00 0.00 0.00 0.00 0.00 0.00 0.00 0.00 0.00 0.00 0.00 0.00 0.00 0.00 0.00 0.00 0.00 0.00 0.00
0.00 0.00 0.00 0.00 0.00 0.00 0.00 0.00 0.01 0.03 0.00 0.00 0.00 0.00 0.00 0.00 0.00 0.00 0.00 0.00 0.00 0.00 0.00 0.00 0.00 0.00 0.00 0.00 0.00 0.00 0.00 0.00 0.00 0.00 0.00 0.00 0.00 0.00 0.00 0.00 0.00 0.00 0.00
0.00 0.00 0.00 0.00 0.00 0.00 0.00 0.00 0.00 0.00 0.00 0.00 0.00 0.00 0.00 0.00 0.00 0.00 0.00 0.00 0.00 0.00 0.00 0.00 0.00 0.00 0.00 0.00 0.00 0.00 0.00 0.00 0.00 0.00 0.00 0.00 0.00 0.00 0.00 0.00 0.00 0.00 0.00
0.00 0.01 0.00 0.00 0.00 0.00 0.01 0.02 0.00 0.00 0.00 0.00 0.00 0.00 0.00 0.00 0.00 0.00 0.00 0.00 0.00 0.00 0.00 0.00 0.00 0.00 0.00 0.00 0.00 0.00 0.00 0.00 0.00 0.00 0.00 0.00 0.00 0.00 0.00 0.00 0.00 0.00 0.00
0.00 0.00 0.00 0.01 0.00 0.00 0.00 0.00 0.00 0.00 0.00 0.00 0.00 0.00 0.00 0.00 0.00 0.00 0.00 0.00 0.00 0.00 0.00 0.00 0.00 0.00 0.00 0.00 0.00 0.00 0.00 0.00 0.00 0.00 0.00 0.00 0.00 0.00 0.00 0.00 0.00 0.00 0.00
0.00 0.00 0.00 0.01 0.01 0.00 0.00 0.00 0.00 0.01 0.03 0.01 0.00 0.00 0.00 0.00 0.00 0.00 0.00 0.00 0.00 0.00 0.00 0.00 0.00 0.00 0.00 0.00 0.00 0.00 0.00 0.00 0.00 0.00 0.00 0.00 0.00 0.00 0.00 0.00 0.00 0.00 0.00
0.01 0.01 0.00 0.03 0.04 0.03 0.00 0.05 0.05 0.04 0.01 0.00 0.00 0.00 0.00 0.00 0.00 0.00 0.00 0.00 0.00 0.00 0.00 0.00 0.00 0.00 0.00 0.00 0.00 0.00 0.00 0.00 0.00 0.00 0.00 0.00 0.00 0.00 0.00 0.00 0.00 0.00 0.00
0.01 0.01 0.03 0.04 0.07 0.02 0.02 0.02 0.05 0.03 0.01 0.01 0.00 0.00 0.00 0.00 0.00 0.00 0.00 0.00 0.00 0.00 0.00 0.00 0.00 0.00 0.00 0.00 0.00 0.00 0.00 0.00 0.00 0.00 0.00 0.00 0.00 0.00 0.00 0.00 0.00 0.00 0.00
MSLP
1012.94 1013.44 1013.95 1014.20 1014.04 1014.33 1014.56 1015.18 1015.77 1015.90 1016.51 1016.75 1016.90 1017.03 1016.85 1017.24 1017.66 1017.85 1018.16 1018.38 1018.49 1018.67 1018.86 1018.96 1018.97 1018.82 1018.76 1018.87 1019.09 1019.12 1019.21 1019.20 1019.34 1019.43 1019.36 1019.44 1019.61 1019.79 1019.63 1019.46 1019.30 1019.06 1018.95
1012.64 1013.38 1013.95 1014.26 1014.39 1014.63 1014.98 1015.25 1015.72 1016.10 1016.78 1017.18 1017.31 1017.39 1017.26 1017.27 1017.99 1018.14 1018.48 1018.71 1018.85 1019.02 1019.22 1019.28 1019.15 1019.07 1018.90 1019.09 1019.40 1019.67 1019.74 1019.66 1019.87 1019.99 1020.03 1020.09 1020.04 1019.97 1020.10 1019.93 1019.62 1019.39 1019.04
1012.81 1013.55 1014.11 1014.36 1014.61 1014.94 1015.36 1015.70 1016.09 1016.26 1017.02 1017.35 1017.57 1017.69 1017.56 1017.95 1018.12 1018.45 1018.84 1019.00 1019.15 1019.36 1019.44 1019.60 1019.45 1019.24 1019.29 1019.28 1019.50 1019.89 1020.23 1020.16 1020.35 1020.35 1020.41 1020.46 1020.43 1020.35 1020.16 1020.22 1020.09 1019.81 1019.82
1013.07 1013.67 1014.27 1014.62 1014.82 1015.23 1015.73 1016.17 1016.27 1016.75 1017.25 1017.57 1017.62 1017.80 1017.87 1018.43 1018.38 1018.66 1018.85 1019.24 1019.35 1019.57 1019.67 1020.00 1019.83 1019.87 1019.82 1019.76 1020.00 1020.26 1020.33 1020.45 1020.63 1020.96 1020.92 1020.85 1020.75 1020.74 1020.41 1020.38 1020.26 1020.23 1020.18
1013.66 1014.08 1014.57 1014.82 1015.31 1015.61 1016.22 1016.75 1016.84 1017.23 1017.52 1017.79 1017.95 1017.99 1017.99 1018.52 1018.53 1018.93 1019.05 1019.39 1019.59 1019.76 1019.99 1020.32 1020.47 1020.44 1020.47 1020.52 1020.50 1020.78 1020.94 1021.22 1021.28 1021.26 1021.31 1021.23 1021.12 1021.16 1020.92 1020.79 1020.62 1020.64 1020.51
1014.11 1014.55 1014.99 1015.13 1015.64 1016.03 1016.33 1017.38 1017.41 1017.39 1017.54 1017.83 1018.05 1018.18 1018.20 1018.68 1018.87 1019.12 1019.25 1019.59 1019.83 1020.05 1020.30 1020.74 1020.99 1020.93 1021.08 1021.14 1021.31 1021.37 1021.64 1021.68 1021.77 1021.63 1021.83 1021.61 1021.36 1021.38 1021.42 1021.31 1021.06 1021.08 1020.97
1014.48 1014.82 1015.26 1015.54 1015.90 1017.07 1016.26 1017.34 1018.22 1018.17 1018.00 1018.13 1018.43 1018.42 1018.63 1018.93 1019.19 1019.41 1019.68 1019.90 1020.06 1020.23 1020.62 1020.91 1021.14 1021.16 1021.35 1021.49 1021.45 1021.70 1022.06 1022.00 1021.92 1021.99 1022.28 1021.89 1021.87 1021.63 1021.53 1021.72 1021.54 1021.51 1021.45
1014.75 1015.08 1015.46 1016.10 1016.52 1017.69 1017.70 1017.56 1018.32 1018.69 1018.76 1018.88 1019.12 1019.16 1019.28 1019.45 1019.71 1019.75 1020.33 1020.51 1020.49 1020.73 1020.90 1021.14 1021.16 1021.41 1021.70 1021.73 1021.81 1022.00 1022.25 1022.25 1022.20 1022.25 1022.52 1022.16 1021.95 1021.93 1021.89 1021.93 1022.14 1022.26 1021.87
1014.97 1015.48 1015.73 1017.12 1017.50 1018.29 1018.62 1018.03 1018.46 1018.85 1019.25 1019.50 1019.58 1019.76 1019.81 1019.93 1020.08 1020.36 1020.59 1020.67 1020.76 1021.04 1020.95 1021.12 1021.25 1021.59 1021.78 1022.01 1022.24 1022.40 1022.60 1022.52 1022.67 1022.74 1022.66 1022.46 1022.25 1022.32 1022.20 1022.31 1022.21 1022.55 1022.47
1015.95 1015.95 1017.19 1018.24 1018.19 1018.54 1018.96 1018.34 1018.71 1019.11 1019.71 1020.08 1020.08 1020.15 1020.31 1020.47 1020.63 1020.87 1020.92 1021.01 1021.23 1021.25 1021.31 1021.56 1021.84 1021.91 1021.93 1022.12 1022.58 1022.82 1022.93 1022.97 1023.02 1023.27 1023.28 1022.80 1022.46 1022.40 1022.66 1022.75 1022.84 1022.96 1022.66
1017.02 1017.85 1018.65 1018.51 1018.47 1019.12 1018.61 1018.51 1019.20 1019.72 1020.17 1020.18 1020.34 1020.43 1020.61 1020.96 1021.13 1021.32 1021.16 1021.16 1021.55 1021.79 1021.77 1022.17 1022.15 1022.39 1022.47 1022.67 1022.91 1023.19 1023.45 1023.56 1023.23 1023.40 1023.51 1022.98 1022.78 1022.75 1022.74 1023.13 1023.29 1023.26 1023.12
1017.83 1018.65 1018.58 1018.46 1018.50 1018.81 1018.64 1019.20 1020.04 1020.37 1020.56 1020.51 1020.63 1020.77 1021.14 1021.31 1021.54 1021.62 1021.63 1022.03 1021.95 1021.99 1022.12 1022.51 1022.62 1022.89 1023.04 1023.07 1023.72 1023.74 1023.90 1023.83 1023.82 1023.86 1023.63 1023.16 1022.91 1023.11 1023.26 1023.07 1023.47 1023.47 1023.48
1017.99 1018.34 1018.87 1019.11 1019.34 1019.51 1019.51 1020.19 1020.51 1020.58 1020.61 1020.74 1020.78 1021.05 1021.25 1021.43 1021.54 1021.79 1022.27 1022.26 1022.40 1022.60 1022.68 1022.97 1023.04 1023.25 1023.51 1023.83 1024.29 1024.24 1024.10 1024.09 1024.28 1024.20 1023.95 1023.53 1023.29 1023.07 1023.49 1023.41 1023.57 1023.57 1023.75
1017.74 1017.90 1018.73 1018.89 1019.04 1019.30 1019.84 1020.27 1020.51 1020.46 1020.54 1020.82 1021.12 1021.26 1021.25 1021.50 1021.93 1022.14 1022.61 1022.57 1022.75 1023.19 1023.48 1023.66 1023.57 1023.88 1024.03 1024.33 1024.53 1024.55 1024.49 1024.57 1024.61 1024.40 1024.28 1023.76 1023.54 1023.44 1023.53 1023.68 1023.65 1023.84 1023.98
1018.06 1018.19 1018.58 1018.49 1019.15 1019.46 1019.79 1020.27 1020.52 1020.66 1020.70 1020.98 1020.93 1020.97 1021.20 1021.56 1021.78 1022.44 1022.62 1022.81 1023.06 1023.52 1023.78 1023.82 1024.07 1024.26 1024.53 1024.72 1024.74 1024.88 1024.92 1024.85 1024.51 1024.38 1024.24 1023.88 1023.64 1023.75 1023.68 1023.78 1023.71 1023.90 1024.17
1017.59 1017.82 1018.27 1018.33 1018.79 1019.30 1019.79 1020.05 1020.43 1020.72 1020.91 1020.97 1020.82 1020.72 1021.24 1021.39 1022.02 1022.53 1022.77 1023.05 1023.36 1023.77 1024.02 1023.90 1024.51 1024.56 1024.82 1024.90 1025.23 1025.23 1025.46 1025.25 1024.87 1024.65 1024.25 1024.21 1023.99 1023.99 1023.96 1024.02 1024.07 1024.12 1024.28
1017.15 1017.40 1018.00 1018.21 1018.66 1019.22 1019.63 1020.09 1020.35 1020.79 1020.80 1020.87 1021.03 1020.98 1021.19 1021.51 1021.91 1022.43 1022.69 1023.51 1023.79 1023.94 1024.20 1024.63 1024.81 1024.67 1025.09 1025.31 1025.63 1025.59 1025.76 1025.68 1025.37 1024.91 1024.69 1024.62 1024.50 1024.45 1024.45 1024.54 1024.51 1024.59 1024.66
1017.13 1017.53 1017.69 1018.06 1018.65 1019.05 1019.38 1019.97 1020.48 1020.62 1020.89 1020.99 1021.34 1021.38 1021.36 1021.70 1022.31 1022.54 1023.17 1023.85 1024.05 1024.19 1024.48 1024.87 1025.10 1025.28 1025.59 1025.72 1026.08 1026.11 1026.20 1025.96 1025.67 1025.43 1025.25 1025.14 1025.13 1025.21 1025.09 1024.91 1024.91 1024.92 1024.89
1016.86 1017.33 1017.57 1017.99 1018.56 1019.07 1019.45 1020.00 1020.17 1020.62 1020.97 1021.31 1021.58 1021.49 1021.45 1022.31 1022.46 1022.81 1023.39 1023.83 1023.99 1024.28 1024.79 1024.77 1025.08 1025.50 1025.71 1025.88 1026.23 1026.27 1026.33 1026.35 1026.25 1025.99 1025.72 1025.54 1025.49 1025.47 1025.48 1025.35 1025.34 1025.23 1025.10
1016.88 1017.28 1017.73 1018.23 1018.64 1019.31 1019.73 1020.28 1020.57 1020.91 1021.45 1021.42 1021.31 1021.49 1021.82 1022.61 1022.68 1023.01 1023.41 1023.82 1023.89 1024.39 1024.86 1024.82 1025.49 1025.67 1025.68 1026.01 1026.23 1026.24 1026.39 1026.52 1026.70 1026.50 1026.25 1025.98 1025.94 1025.87 1025.75 1025.72 1025.75 1025.63 1025.39
1017.04 1017.44 1017.74 1018.15 1018.67 1019.39 1019.91 1020.47 1020.84 1020.99 1021.25 1021.61 1021.62 1021.66 1022.12 1022.49 1022.51 1022.85 1023.46 1023.81 1023.97 1024.21 1024.56 1024.79 1025.37 1025.83 1026.02 1026.16 1026.49 1026.67 1026.55 1026.72 1026.78 1026.82 1026.59 1026.32 1026.16 1026.18 1026.09 1026.01 1025.92 1025.84 1025.76
1016.59 1017.12 1017.67 1017.98 1018.60 1018.95 1019.24 1019.76 1020.23 1020.61 1021.28 1021.54 1021.70 1021.74 1022.10 1022.21 1022.38 1022.93 1023.31 1023.67 1023.94 1024.17 1024.41 1024.95 1025.29 1025.83 1026.07 1026.32 1026.67 1027.06 1027.20 1027.11 1026.80 1026.88 1026.78 1026.65 1026.70 1026.52 1026.27 1026.15 1026.14 1026.01 1025.88
1016.19 1016.50 1016.90 1017.49 1017.95 1018.46 1018.99 1019.73 1020.35 1021.00 1021.36 1021.71 1021.69 1021.98 1021.93 1022.01 1022.36 1022.96 1023.14 1023.59 1023.83 1024.00 1024.71 1025.06 1025.40 1025.68 1026.07 1026.12 1026.18 1026.65 1027.42 1027.54 1027.34 1026.87 1026.88 1026.88 1026.91 1026.85 1026.61 1026.39 1026.25 1026.10 1026.00
1014.96 1015.70 1016.10 1016.93 1017.42 1018.05 1018.65 1019.43 1019.83 1020.32 1020.95 1021.11 1021.32 1021.50 1021.77 1022.11 1022.52 1022.87 1023.11 1023.50 1023.92 1024.48 1025.05 1025.51 1025.82 1026.11 1026.25 1026.39 1026.45 1026.46 1026.71 1027.07 1027.55 1027.82 1027.20 1026.89 1026.85 1026.63 1026.49 1026.55 1026.47 1026.39 1026.15
1015.12 1015.62 1016.25 1017.00 1017.43 1017.74 1018.33 1018.91 1019.35 1019.98 1020.19 1020.49 1021.01 1021.51 1021.96 1022.36 1022.73 1023.06 1023.58 1024.10 1024.68 1025.11 1025.39 1025.48 1025.26 1025.91 1026.33 1026.59 1026.76 1026.82 1026.88 1026.88 1027.18 1027.50 1027.37 1027.10 1026.89 1026.53 1026.20 1026.12 1026.11 1026.05 1025.98
1015.05 1015.72 1016.31 1016.77 1016.90 1017.53 1017.92 1018.40 1018.81 1019.54 1020.03 1020.59 1021.02 1021.58 1022.20 1022.75 1023.24 1023.57 1023.96 1024.39 1024.81 1025.44 1025.54 1025.46 1025.73 1025.96 1026.26 1026.51 1026.59 1026.61 1026.90 1026.85 1027.02 1027.31 1027.36 1027.03 1026.96 1026.49 1026.02 1025.80 1025.95 1025.94 1025.80
Thickness
5723 5720 5717 5715 5716 5713 5710 5704 5698 5696 5690 5689 5686 5685 5688 5685 5681 5680 5676 5674 5673 5672 5671 5671 5671 5671 5671 5669 5665 5664 5663 5662 5659 5656 5655 5653 5649 5646 5648 5649 5650 5652 5651
5723 5716 5712 5709 5707 5705 5703 5701 5697 5692 5685 5682 5680 5679 5682 5682 5675 5674 5672 5669 5669 5669 5667 5668 5668 5668 5668 5665 5661 5657 5656 5656 5653 5650 5648 5645 5645 5644 5642 5644 5647 5649 5652
5716 5709 5704 5703 5701 5698 5694 5692 5690 5688 5681 5678 5676 5675 5677 5673 5672 5669 5667 5667 5666 5664 5664 5663 5664 5664 5662 5662 5660 5654 5649 5650 5647 5647 5645 5643 5641 5639 5641 5639 5640 5642 5641
5707 5702 5698 5694 5693 5689 5686 5683 5683 5680 5676 5672 5672 5672 5672 5667 5669 5667 5667 5664 5663 5660 5659 5656 5657 5656 5657 5657 5654 5650 5649 5647 5644 5639 5640 5639 5637 5635 5638 5637 5637 5636 5635
5695 5691 5688 5686 5682 5682 5677 5673 5674 5670 5669 5666 5666 5668 5667 5663 5663 5663 5664 5662 5659 5656 5653 5652 5649 5650 5649 5648 5648 5644 5642 5638 5636 5635 5634 5633 5631 5629 5630 5631 5632 5630 5629
5686 5680 5677 5674 5671 5669 5667 5660 5662 5665 5665 5663 5662 5662 5661 5658 5659 5660 5661 5658 5655 5653 5649 5644 5644 5645 5642 5640 5637 5637 5633 5632 5630 5631 5627 5627 5627 5624 5623 5623 5624 5622 5622
5676 5672 5668 5664 5658 5653 5663 5654 5649 5651 5655 5654 5654 5655 5654 5653 5653 5654 5654 5654 5652 5650 5644 5640 5639 5640 5636 5633 5633 5629 5625 5625 5625 5624 5618 5621 5618 5618 5618 5615 5616 5614 5612
5672 5665 5664 5653 5648 5640 5640 5646 5641 5638 5640 5643 5643 5645 5646 5647 5647 5649 5646 5645 5647 5643 5640 5636 5635 5631 5628 5627 5625 5622 5618 5617 5619 5617 5612 5613 5611 5610 5609 5608 5603 5600 5602
5663 5659 5652 5639 5633 5627 5629 5638 5636 5632 5631 5632 5635 5638 5640 5641 5643 5642 5641 5643 5642 5637 5636 5633 5633 5626 5622 5619 5616 5613 5610 5611 5610 5608 5607 5607 5604 5601 5601 5598 5596 5591 5589
5652 5644 5635 5617 5619 5620 5622 5631 5629 5626 5623 5624 5629 5634 5635 5635 5636 5635 5637 5636 5633 5631 5630 5627 5621 5619 5618 5614 5607 5605 5603 5601 5601 5597 5595 5597 5596 5595 5589 5586 5583 5580 5581
5638 5628 5624 5625 5624 5619 5622 5625 5618 5617 5617 5624 5628 5631 5633 5632 5631 5631 5632 5632 5626 5624 5624 5617 5615 5611 5610 5605 5601 5597 5593 5592 5594 5590 5587 5587 5585 5584 5582 5576 5572 5570 5570
5625 5616 5614 5619 5623 5622 5623 5622 5616 5613 5617 5622 5626 5629 5628 5626 5625 5625 5626 5621 5622 5621 5617 5611 5608 5602 5600 5601 5591 5589 5587 5587 5584 5580 5579 5578 5577 5573 5569 5570 5563 5561 5560
5623 5622 5614 5612 5613 5613 5614 5609 5609 5614 5618 5621 5624 5624 5624 5625 5626 5623 5616 5617 5614 5611 5610 5603 5601 5598 5595 5590 5583 5582 5582 5580 5576 5574 5572 5571 5569 5568 5561 5559 5555 5553 5550
5622 5622 5614 5613 5612 5612 5609 5609 5613 5619 5622 5622 5619 5620 5624 5623 5619 5617 5611 5611 5609 5602 5597 5594 5595 5590 5587 5582 5578 5575 5573 5571 5568 5568 5564 5564 5563 5559 5557 5553 5550 5545 5541
5615 5617 5615 5618 5609 5611 5615 5615 5615 5619 5622 5618 5620 5620 5620 5618 5617 5609 5607 5605 5602 5595 5591 5592 5588 5584 5579 5574 5571 5566 5564 5562 5563 5561 5558 5557 5554 5549 5547 5544 5542 5538 5532
5626 5628 5623 5627 5623 5620 5618 5619 5618 5617 5615 5616 5620 5622 5615 5615 5611 5606 5603 5601 5596 5589 5587 5587 5579 5577 5572 5567 5561 5557 5554 5553 5553 5551 5550 5547 5542 5538 5536 5532 5529 5526 5522
5633 5635 5627 5629 5628 5624 5621 5616 5617 5613 5615 5617 5616 5617 5615 5612 5609 5602 5602 5592 5588 5584 5582 5577 5572 5570 5563 5558 5552 5548 5544 5541 5540 5540 5538 5533 5529 5525 5521 5518 5515 5512 5510
5635 5633 5634 5634 5628 5624 5623 5619 5614 5615 5613 5615 5611 5610 5612 5609 5601 5601 5594 5585 5582 5580 5575 5568 5563 5560 5553 5548 5540 5535 5531 5528 5527 5524 5521 5517 5513 5509 5506 5504 5501 5499 5498
5638 5636 5636 5635 5629 5624 5622 5616 5616 5613 5610 5609 5607 5608 5609 5597 5597 5593 5587 5581 5579 5574 5566 5562 5558 5550 5543 5537 5530 5525 5520 5515 5511 5507 5505 5502 5499 5495 5493 5490 5488 5486 5484
5636 5635 5632 5628 5626 5620 5617 5612 5611 5608 5604 5606 5607 5605 5601 5590 5590 5587 5582 5576 5574 5567 5559 5555 5545 5539 5534 5526 5521 5515 5508 5501 5495 5493 5490 5487 5484 5481 5479 5477 5474 5472 5470
5633 5631 5630 5627 5623 5615 5613 5608 5606 5606 5605 5601 5600 5598 5591 5587 5587 5584 5576 5571 5566 5560 5553 5544 5535 5528 5521 5514 5506 5500 5495 5489 5484 5479 5477 5474 5470 5467 5464 5461 5458 5455 5452
5636 5633 5630 5628 5622 5620 5617 5612 5609 5607 5601 5598 5594 5593 5588 5586 5585 5577 5570 5562 5556 5550 5543 5533 5526 5517 5509 5501 5493 5484 5479 5475 5473 5468 5464 5459 5455 5451 5447 5443 5439 5437 5434
5636 5633 5631 5627 5623 5621 5617 5608 5604 5598 5596 5592 5592 5588 5587 5582 5575 5564 5560 5552 5547 5540 5528 5520 5512 5505 5496 5491 5487 5478 5464 5457 5454 5456 5450 5444 5438 5433 5429 5425 5419 5415 5410
5643 5636 5633 5625 5623 5619 5614 5606 5603 5600 5596 5592 5588 5585 5578 5569 5562 5555 5550 5543 5534 5524 5515 5504 5496 5489 5484 5479 5472 5467 5459 5451 5442 5437 5436 5431 5426 5421 5414 5407 5400 5392 5388
5640 5635 5629 5623 5619 5618 5613 5608 5605 5599 5597 5592 5584 5576 5568 5560 5552 5545 5537 5528 5517 5507 5499 5494 5493 5483 5473 5465 5457 5452 5446 5439 5431 5423 5419 5415 5409 5403 5398 5391 5383 5376 5368
5635 5630 5625 5621 5621 5617 5614 5609 5605 5598 5592 5583 5576 5568 5559 5550 5541 5533 5524 5515 5505 5496 5489 5486 5480 5471 5462 5453 5446 5439 5432 5426 5417 5406 5399 5397 5391 5388 5381 5374 5363 5354 5348